FW7515 Weather Reports


Display with metric or nautical units.
time (UTC)temp
F
wind
direction
speed
MPH
gust
MPH
rain 1hr
in
rain 24hr
in
rain mn
in
humidity
%
barometer
mb
20260504025545 71 201 2.0 4.0 0.00 0.00 0.00 46 1015.6
20260504025021 72 188 2.0 6.0 0.00 0.00 0.00 45 1015.6
20260504024539 72 194 3.0 6.0 0.00 0.00 0.00 45 1015.6
20260504024056 72 211 3.0 6.0 0.00 0.00 0.00 44 1015.6
20260504023533 72 209 3.0 6.0 0.00 0.00 0.00 44 1015.5
20260504023029 72 201 2.0 7.0 0.00 0.00 0.00 44 1015.5
20260504022527 72 187 3.0 6.0 0.00 0.00 0.00 43 1015.5
20260504022023 73 195 3.0 7.0 0.00 0.00 0.00 43 1015.4
20260504021520 73 175 2.0 5.0 0.00 0.00 0.00 42 1015.4
20260504021017 73 184 3.0 6.0 0.00 0.00 0.00 42 1015.5
20260504020533 73 178 2.0 5.0 0.00 0.00 0.00 42 1015.5
20260504020030 73 170 2.0 6.0 0.00 0.00 0.00 42 1015.5
20260504015548 74 183 3.0 6.0 0.00 0.00 0.00 41 1015.5
20260504015024 74 197 2.0 5.0 0.00 0.00 0.00 41 1015.5
20260504014522 74 188 3.0 9.0 0.00 0.00 0.00 40 1015.6
20260504014018 75 191 3.0 7.0 0.00 0.00 0.00 39 1015.5
20260504013535 75 190 2.0 5.0 0.00 0.00 0.00 39 1015.3
20260504013032 75 195 2.0 5.0 0.00 0.00 0.00 39 1015.1
20260504012549 75 179 3.0 8.0 0.00 0.00 0.00 39 1015.3
20260504012025 75 199 2.0 5.0 0.00 0.00 0.00 38 1015.2
20260504011522 76 196 2.0 6.0 0.00 0.00 0.00 37 1015.2
20260504011039 76 167 3.0 7.0 0.00 0.00 0.00 37 1015.1
20260504010516 76 175 3.0 6.0 0.00 0.00 0.00 37 1015.2
20260504010033 77 187 3.0 8.0 0.00 0.00 0.00 37 1015.0
20260504005530 77 204 2.0 7.0 0.00 0.00 0.00 36 1015.0
20260504005027 77 186 3.0 7.0 0.00 0.00 0.00 36 1015.0
20260504004543 78 183 3.0 5.0 0.00 0.00 0.00 35 1015.1
20260504004040 78 194 3.0 9.0 0.00 0.00 0.00 35 1015.1
20260504003517 79 202 3.0 6.0 0.00 0.00 0.00 34 1015.1
20260504003034 79 201 4.0 9.0 0.00 0.00 0.00 33 1015.1
20260504002531 80 192 3.0 9.0 0.00 0.00 0.00 33 1015.2
20260504002028 80 189 3.0 11.0 0.00 0.00 0.00 33 1015.2
20260504001524 81 188 4.0 8.0 0.00 0.00 0.00 32 1015.3
20260504001042 81 203 3.0 7.0 0.00 0.00 0.00 32 1015.3
20260504000518 81 210 3.0 10.0 0.00 0.00 0.00 31 1015.4
20260504000054 82 220 4.0 9.0 0.00 0.00 0.00 31 1015.2
20260503235530 82 192 3.0 9.0 0.00 0.00 0.00 32 1015.3
20260503235028 82 213 4.0 10.0 0.00 0.00 0.00 31 1015.5
20260503234525 82 214 5.0 11.0 0.00 0.00 0.00 30 1015.4
20260503234022 82 207 5.0 13.0 0.00 0.00 0.00 30 1015.4
20260503233519 83 209 5.0 12.0 0.00 0.00 0.00 30 1015.4
20260503233015 82 206 3.0 11.0 0.00 0.00 0.00 30 1015.6
20260503232533 82 217 5.0 13.0 0.00 0.00 0.00 30 1015.6
20260503232029 82 216 5.0 11.0 0.00 0.00 0.00 30 1015.7
20260503231525 83 214 5.0 12.0 0.00 0.00 0.00 30 1015.6
20260503231042 83 220 4.0 9.0 0.00 0.00 0.00 30 1015.8
20260503230520 83 209 5.0 13.0 0.00 0.00 0.00 30 1015.8
20260503230017 84 221 6.0 13.0 0.00 0.00 0.00 30 1015.8
20260503225555 84 219 5.0 11.0 0.00 0.00 0.00 30 1015.7
20260503225032 84 226 5.0 11.0 0.00 0.00 0.00 29 1015.8
20260503224529 83 224 6.0 13.0 0.00 0.00 0.00 30 1015.8
20260503224026 84 211 5.0 11.0 0.00 0.00 0.00 29 1015.8
20260503223523 84 222 5.0 15.0 0.00 0.00 0.00 29 1015.9
20260503223020 84 216 5.0 11.0 0.00 0.00 0.00 29 1015.9
20260503222516 84 205 5.0 12.0 0.00 0.00 0.00 29 1016.0
20260503222033 84 219 6.0 14.0 0.00 0.00 0.00 29 1016.0
20260503221530 84 212 4.0 11.0 0.00 0.00 0.00 29 1016.1
20260503221047 83 221 6.0 14.0 0.00 0.00 0.00 30 1016.1
20260503220524 84 217 6.0 13.0 0.00 0.00 0.00 30 1016.1
20260503220020 84 211 5.0 15.0 0.00 0.00 0.00 29 1016.2
20260503215557 84 219 7.0 17.0 0.00 0.00 0.00 29 1016.4
20260503215034 84 221 7.0 17.0 0.00 0.00 0.00 29 1016.4
20260503214531 84 226 7.0 15.0 0.00 0.00 0.00 28 1016.4
20260503214027 84 200 4.0 8.0 0.00 0.00 0.00 28 1016.6
20260503213525 84 222 6.0 16.0 0.00 0.00 0.00 28 1016.7
20260503213022 84 219 8.0 19.0 0.00 0.00 0.00 28 1016.7
20260503212519 85 219 7.0 19.0 0.00 0.00 0.00 27 1016.6
20260503212055 85 216 4.0 10.0 0.00 0.00 0.00 28 1016.7
20260503211531 84 226 4.0 9.0 0.00 0.00 0.00 28 1016.9
20260503211028 84 213 5.0 13.0 0.00 0.00 0.00 29 1016.9
20260503210525 84 222 7.0 12.0 0.00 0.00 0.00 29 1017.0
20260503210021 84 223 6.0 13.0 0.00 0.00 0.00 29 1017.3
20260503205518 85 223 4.0 13.0 0.00 0.00 0.00 28 1017.3
20260503205036 84 217 5.0 12.0 0.00 0.00 0.00 28 1017.4
20260503204532 85 222 5.0 15.0 0.00 0.00 0.00 28 1017.6
20260503204028 84 219 4.0 11.0 0.00 0.00 0.00 28 1017.5
20260503203525 84 218 6.0 18.0 0.00 0.00 0.00 28 1017.7
20260503203023 83 224 6.0 15.0 0.00 0.00 0.00 30 1017.7
20260503202520 84 225 5.0 11.0 0.00 0.00 0.00 29 1017.7
20260503202018 85 199 4.0 9.0 0.00 0.00 0.00 29 1017.8
20260503201535 84 218 5.0 13.0 0.00 0.00 0.00 30 1017.9
20260503201031 84 218 5.0 13.0 0.00 0.00 0.00 30 1017.9
20260503200528 84 192 3.0 10.0 0.00 0.00 0.00 30 1018.0
20260503200046 84 212 7.0 14.0 0.00 0.00 0.00 30 1018.2
20260503195542 84 221 5.0 11.0 0.00 0.00 0.00 30 1018.3
20260503195019 83 213 6.0 13.0 0.00 0.00 0.00 30 1018.4
20260503194535 84 218 7.0 18.0 0.00 0.00 0.00 30 1018.3
20260503194032 84 213 5.0 11.0 0.00 0.00 0.00 29 1018.4
20260503193529 83 227 6.0 12.0 0.00 0.00 0.00 30 1018.6
20260503193047 84 217 5.0 14.0 0.00 0.00 0.00 29 1018.7
20260503192524 83 218 5.0 13.0 0.00 0.00 0.00 31 1018.6
20260503192021 83 197 5.0 13.0 0.00 0.00 0.00 31 1018.9
20260503191538 83 213 7.0 16.0 0.00 0.00 0.00 31 1018.9
20260503191035 82 224 6.0 12.0 0.00 0.00 0.00 34 1019.0
20260503190531 82 217 5.0 10.0 0.00 0.00 0.00 32 1018.9
20260503190029 82 224 7.0 14.0 0.00 0.00 0.00 32 1019.1
20260503185525 82 218 5.0 13.0 0.00 0.00 0.00 34 1019.2
20260503185022 81 243 6.0 15.0 0.00 0.00 0.00 36 1019.3
20260503184518 81 226 4.0 11.0 0.00 0.00 0.00 37 1019.4
20260503184035 81 240 4.0 11.0 0.00 0.00 0.00 37 1019.3
20260503183532 81 234 6.0 12.0 0.00 0.00 0.00 37 1019.4
20260503183028 81 225 7.0 14.0 0.00 0.00 0.00 38 1019.6
20260503182546 81 229 7.0 14.0 0.00 0.00 0.00 37 1019.7
20260503182022 81 217 6.0 11.0 0.00 0.00 0.00 36 1019.9
20260503181519 80 219 8.0 15.0 0.00 0.00 0.00 37 1019.9
20260503181036 81 214 6.0 12.0 0.00 0.00 0.00 36 1019.9
20260503180553 81 223 9.0 16.0 0.00 0.00 0.00 37 1020.0
20260503180030 81 218 6.0 13.0 0.00 0.00 0.00 38 1020.1
20260503175526 80 238 5.0 10.0 0.00 0.00 0.00 39 1020.2
20260503175023 80 233 7.0 12.0 0.00 0.00 0.00 38 1020.4
20260503174540 79 223 7.0 15.0 0.00 0.00 0.00 40 1020.3
20260503174017 79 218 7.0 13.0 0.00 0.00 0.00 39 1020.5
20260503173614 79 229 6.0 11.0 0.00 0.00 0.00 41 1020.6
20260503173031 79 234 6.0 10.0 0.00 0.00 0.00 40 1020.6
20260503172548 79 227 6.0 13.0 0.00 0.00 0.00 40 1020.7
20260503172044 79 230 6.0 11.0 0.00 0.00 0.00 40 1020.8
20260503171521 79 236 6.0 14.0 0.00 0.00 0.00 41 1020.8
20260503171018 79 224 7.0 17.0 0.00 0.00 0.00 41 1020.9
20260503170535 78 217 7.0 17.0 0.00 0.00 0.00 41 1021.0
20260503150520 71 222 7.0 13.0 0.00 0.00 0.00 50 1021.3
20260503131108 63 211 2.0 6.0 0.00 0.00 0.00 61 1020.9
20260503130525 62 212 3.0 7.0 0.00 0.00 0.00 61 1021.0
20260503110611 60 176 2.0 4.0 0.00 0.00 0.00 64 1019.7
20260503081523 62 194 2.0 7.0 0.00 0.00 0.00 58 1019.7
20260503081020 62 177 2.0 5.0 0.00 0.00 0.00 58 1019.6
20260503080516 62 185 2.0 4.0 0.00 0.00 0.00 58 1019.7
20260503072554 63 179 2.0 4.0 0.00 0.00 0.00 58 1020.0
20260503072030 63 209 2.0 6.0 0.00 0.00 0.00 58 1020.1
20260503071527 63 193 2.0 7.0 0.00 0.00 0.00 58 1020.1
20260503071024 63 191 2.0 5.0 0.00 0.00 0.00 58 1020.1
20260503070520 63 206 2.0 5.0 0.00 0.00 0.00 58 1020.2
20260503055032 65 208 3.0 5.0 0.00 0.00 0.00 54 1019.9
20260503054529 64 196 3.0 6.0 0.00 0.00 0.00 55 1019.9
20260503054047 65 196 1.0 3.0 0.00 0.00 0.00 56 1019.8
20260503053544 65 180 2.0 4.0 0.00 0.00 0.00 55 1020.0
20260503053020 65 192 1.0 4.0 0.00 0.00 0.00 55 1019.8
20260503052517 65 202 2.0 4.0 0.00 0.00 0.00 54 1019.9
20260503052034 65 195 2.0 4.0 0.00 0.00 0.00 54 1019.8
20260503051530 65 197 2.0 4.0 0.00 0.00 0.00 54 1019.8
20260503051026 66 193 2.0 4.0 0.00 0.00 0.00 54 1019.8
20260503050522 66 200 2.0 4.0 0.00 0.00 0.00 53 1019.6
20260503050019 66 181 1.0 3.0 0.00 0.00 0.00 53 1019.7
20260503045535 66 193 2.0 4.0 0.00 0.00 0.00 53 1019.7
20260503045132 66 192 2.0 4.0 0.00 0.00 0.00 53 1019.7
20260503044529 65 209 2.0 4.0 0.00 0.00 0.00 54 1019.6
20260503044026 65 182 1.0 3.0 0.00 0.00 0.00 55 1019.6
20260503043523 65 152 0.0 3.0 0.00 0.00 0.00 55 1019.7
20260503043020 66 164 1.0 3.0 0.00 0.00 0.00 54 1019.7
20260503042537 66 176 1.0 3.0 0.00 0.00 0.00 53 1019.7
20260503042034 66 173 1.0 2.0 0.00 0.00 0.00 52 1019.7
20260503041531 67 184 1.0 2.0 0.00 0.00 0.00 52 1019.7
20260503041048 67 176 1.0 4.0 0.00 0.00 0.00 51 1019.7
20260503040544 67 187 1.0 2.0 0.00 0.00 0.00 51 1019.8
20260503040021 67 185 1.0 2.0 0.00 0.00 0.00 51 1019.8
20260503035517 67 200 1.0 2.0 0.00 0.00 0.00 51 1019.7
20260503035055 68 210 1.0 3.0 0.00 0.00 0.00 50 1019.8
20260503034532 68 162 1.0 3.0 0.00 0.00 0.00 50 1019.7
20260503034028 68 206 1.0 3.0 0.00 0.00 0.00 50 1019.8
20260503033525 68 190 1.0 2.0 0.00 0.00 0.00 50 1019.8
20260503033022 68 220 1.0 2.0 0.00 0.00 0.00 50 1019.8
20260503032519 68 210 1.0 3.0 0.00 0.00 0.00 50 1019.7
20260503032036 68 168 1.0 3.0 0.00 0.00 0.00 50 1019.7
20260503031532 68 164 0.0 2.0 0.00 0.00 0.00 50 1019.7
20260503031029 68 180 0.0 2.0 0.00 0.00 0.00 50 1019.5
20260503030525 68 149 0.0 2.0 0.00 0.00 0.00 49 1019.4
20260503030043 69 156 0.0 2.0 0.00 0.00 0.00 49 1019.5